1995-01-01 01:00:00,1.2,138.9
1995-01-01 02:00:00,1.3,118.8
1995-01-01 03:00:00,1.4,141.2
1995-01-01 04:00:00,1.8,110.8
1995-01-01 05:00:00,1.3,122.8
1995-01-01 06:00:00,1.3,123.3
1995-01-01 07:00:00,2.0,141.9
1995-01-01 08:00:00,3.2,171.7
1995-01-01 09:00:00,2.3,97.7
1995-01-01 10:00:00,1.8,136.2
1995-01-01 11:00:00,2.1,114.9
1995-01-01 12:00:00,2.3,161.5
1995-01-01 13:00:00,3.4,129.8
1995-01-01 14:00:00,5.9,105.6
1995-01-01 15:00:00,7.3,121.7
1995-01-01 16:00:00,6.8,133.6
1995-01-01 17:00:00,6.0,108.3
1995-01-01 18:00:00,3.0,86.4
1995-01-01 19:00:00,2.0,231.5
1995-01-01 20:00:00,1.9,168.6
1995-01-01 21:00:00,2.8,94.9
1995-01-01 22:00:00,1.7,205.3
1995-01-01 23:00:00,0.8,205.9
1995-01-02 00:00:00,1.9,122.4
1995-01-02 01:00:00,1.6,131.7
1995-01-02 02:00:00,1.5,130.9
1995-01-02 03:00:00,1.4,145.7
1995-01-02 04:00:00,2.2,133.3
1995-01-02 05:00:00,1.9,114.0
1995-01-02 06:00:00,2.1,131.1
1995-01-02 07:00:00,3.6,138.5
1995-01-02 08:00:00,4.0,142.7
1995-01-02 09:00:00,4.5,135.7
1995-01-02 10:00:00,3.8,134.2
1995-01-02 11:00:00,1.3,127.9
1995-01-02 12:00:00,1.1,155.2
1995-01-02 13:00:00,1.0,148.1
1995-01-02 14:00:00,1.4,142.5
1995-01-02 15:00:00,1.8,123.8
1995-01-02 16:00:00,1.0,153.2
1995-01-02 17:00:00,1.4,168.0
1995-01-02 18:00:00,2.7,123.0
1995-01-02 19:00:00,0.9,173.7
1995-01-02 20:00:00,2.2,140.5
1995-01-02 21:00:00,2.8,138.2
1995-01-02 22:00:00,2.8,137.7
1995-01-02 23:00:00,4.2,107.6
1995-01-03 00:00:00,5.3,95.3
1995-01-03 01:00:00,5.5,89.2
1995-01-03 02:00:00,5.1,75.1
1995-01-03 03:00:00,5.9,71.4
1995-01-03 04:00:00,7.1,79.3
1995-01-03 05:00:00,5.7,61.8
1995-01-03 06:00:00,4.0,62.5
1995-01-03 07:00:00,2.0,263.4
1995-01-03 08:00:00,1.6,255.4
1995-01-03 09:00:00,1.6,123.6
1995-01-03 10:00:00,1.2,124.3
1995-01-03 11:00:00,1.2,180.7
1995-01-03 12:00:00,1.4,142.7
1995-01-03 13:00:00,0.9,141.6
1995-01-03 14:00:00,1.2,301.3
1995-01-03 15:00:00,1.5,278.2
1995-01-03 16:00:00,3.8,324.1
1995-01-03 17:00:00,6.6,96.8
1995-01-03 18:00:00,5.8,94.0
1995-01-03 19:00:00,6.5,102.5
1995-01-03 20:00:00,7.8,96.0
1995-01-03 21:00:00,7.1,107.5
1995-01-03 22:00:00,8.4,103.3
1995-01-03 23:00:00,9.1,99.8
1995-01-04 00:00:00,10.4,96.9
1995-01-04 01:00:00,8.4,117.5
1995-01-04 02:00:00,8.1,115.3
1995-01-04 03:00:00,9.0,119.9
1995-01-04 04:00:00,9.2,99.4
1995-01-04 05:00:00,8.2,112.9
1995-01-04 06:00:00,8.8,103.2
1995-01-04 07:00:00,6.4,94.2
1995-01-04 08:00:00,8.8,105.3
1995-01-04 09:00:00,7.8,120.9
1995-01-04 10:00:00,5.5,158.9
1995-01-04 11:00:00,5.6,169.4
1995-01-04 12:00:00,9.4,120.9
1995-01-04 13:00:00,10.7,113.6
1995-01-04 14:00:00,9.7,130.1
1995-01-04 15:00:00,6.5,140.7
1995-01-04 16:00:00,5.5,129.1
1995-01-04 17:00:00,6.3,145.6
1995-01-04 18:00:00,5.5,149.3
1995-01-04 19:00:00,4.7,130.0
1995-01-04 20:00:00,4.7,163.1
1995-01-04 21:00:00,3.8,113.2
1995-01-04 22:00:00,4.7,120.1
1995-01-04 23:00:00,3.5,123.6
1995-01-05 00:00:00,5.2,125.5
1995-01-05 01:00:00,4.2,115.0
1995-01-05 02:00:00,6.8,107.7
1995-01-05 03:00:00,8.1,105.9
1995-01-05 04:00:00,8.6,114.8
1995-01-05 05:00:00,8.7,119.5
1995-01-05 06:00:00,8.0,104.8
1995-01-05 07:00:00,6.2,106.8
1995-01-05 08:00:00,4.2,135.1
1995-01-05 09:00:00,4.0,259.3
1995-01-05 10:00:00,4.5,287.0
1995-01-05 11:00:00,5.3,146.8
1995-01-05 12:00:00,8.1,118.3
1995-01-05 13:00:00,9.2,82.2
1995-01-05 14:00:00,8.9,71.2
1995-01-05 15:00:00,8.1,113.5
1995-01-05 16:00:00,4.8,95.7
1995-01-05 17:00:00,2.7,62.9
1995-01-05 18:00:00,2.7,154.2
1995-01-05 19:00:00,1.5,326.8
1995-01-05 20:00:00,1.5,112.5
1995-01-05 21:00:00,1.6,147.3
1995-01-05 22:00:00,2.6,109.3
1995-01-05 23:00:00,3.4,70.5
1995-01-06 00:00:00,5.9,69.0
1995-01-06 01:00:00,3.0,290.4
1995-01-06 02:00:00,1.8,266.7
1995-01-06 03:00:00,1.1,185.2
1995-01-06 04:00:00,1.5,163.4
1995-01-06 05:00:00,1.6,251.7
1995-01-06 06:00:00,2.5,278.9
1995-01-06 07:00:00,2.1,303.2
1995-01-06 08:00:00,2.6,57.1
1995-01-06 09:00:00,4.1,57.4
1995-01-06 10:00:00,3.0,28.8
1995-01-06 11:00:00,1.8,359.2
1995-01-06 12:00:00,1.6,282.8
1995-01-06 13:00:00,1.3,200.5
1995-01-06 14:00:00,1.1,141.2
1995-01-06 15:00:00,1.1,208.9
1995-01-06 16:00:00,1.0,138.3
1995-01-06 17:00:00,1.9,121.1
1995-01-06 18:00:00,3.9,96.8
1995-01-06 19:00:00,5.3,73.7
1995-01-06 20:00:00,5.3,69.6
1995-01-06 21:00:00,3.4,114.2
1995-01-06 22:00:00,3.4,275.8
1995-01-06 23:00:00,3.0,194.6
1995-01-07 00:00:00,4.2,297.2
1995-01-07 01:00:00,4.2,268.3
1995-01-07 02:00:00,4.3,139.4
1995-01-07 03:00:00,3.9,134.0
1995-01-07 04:00:00,3.1,224.7
1995-01-07 05:00:00,6.0,298.5
1995-01-07 06:00:00,4.2,299.8
1995-01-07 07:00:00,4.2,286.7
1995-01-07 08:00:00,6.8,144.3
1995-01-07 09:00:00,4.9,74.3
1995-01-07 10:00:00,6.0,79.0
1995-01-07 11:00:00,7.9,78.1
1995-01-07 12:00:00,10.9,119.8
1995-01-07 13:00:00,11.5,92.6
1995-01-07 14:00:00,12.9,54.9
1995-01-07 15:00:00,13.0,53.7
1995-01-07 16:00:00,9.4,59.0
1995-01-07 17:00:00,6.1,73.1
1995-01-07 18:00:00,4.1,329.3
1995-01-07 19:00:00,4.0,292.2
1995-01-07 20:00:00,2.9,280.0
1995-01-07 21:00:00,4.5,281.6
1995-01-07 22:00:00,6.2,297.0
1995-01-07 23:00:00,4.2,215.6
1995-01-08 00:00:00,3.9,212.1
1995-01-08 01:00:00,7.1,304.5
1995-01-08 02:00:00,6.3,303.9
1995-01-08 03:00:00,4.8,306.2
1995-01-08 04:00:00,4.2,255.2
1995-01-08 05:00:00,3.9,278.7
1995-01-08 06:00:00,4.5,302.0
1995-01-08 07:00:00,3.8,297.9
1995-01-08 08:00:00,5.5,298.3
1995-01-08 09:00:00,5.7,297.9
1995-01-08 10:00:00,5.3,293.4
1995-01-08 11:00:00,5.9,300.1
1995-01-08 12:00:00,5.5,304.0
1995-01-08 13:00:00,8.9,297.2
1995-01-08 14:00:00,7.3,301.6
1995-01-08 15:00:00,8.1,292.2
1995-01-08 16:00:00,8.5,299.6
1995-01-08 17:00:00,7.7,301.9
1995-01-08 18:00:00,6.4,303.9
1995-01-08 19:00:00,7.2,299.6
1995-01-08 20:00:00,7.1,299.4
1995-01-08 21:00:00,6.1,296.4
1995-01-08 22:00:00,6.1,288.6
1995-01-08 23:00:00,6.6,298.4
1995-01-09 00:00:00,5.6,284.6
1995-01-09 01:00:00,8.1,302.6
1995-01-09 02:00:00,6.8,295.3
1995-01-09 03:00:00,3.5,286.7
1995-01-09 04:00:00,2.2,338.0
1995-01-09 05:00:00,3.1,275.0
1995-01-09 06:00:00,2.1,279.1
1995-01-09 07:00:00,1.5,271.1
1995-01-09 08:00:00,2.3,16.5
1995-01-09 09:00:00,1.7,122.2
1995-01-09 10:00:00,1.1,99.8
1995-01-09 11:00:00,1.6,305.4
1995-01-09 12:00:00,1.0,78.1
1995-01-09 13:00:00,1.1,284.7
1995-01-09 14:00:00,2.6,281.7
1995-01-09 15:00:00,1.7,224.1
1995-01-09 16:00:00,5.5,102.7
1995-01-09 17:00:00,7.2,114.0
1995-01-09 18:00:00,6.6,101.3
1995-01-09 19:00:00,5.8,93.4
1995-01-09 20:00:00,3.9,68.4
1995-01-09 21:00:00,5.0,89.6
1995-01-09 22:00:00,3.6,83.2
1995-01-09 23:00:00,3.8,34.5
1995-01-10 00:00:00,3.7,39.7
1995-01-10 01:00:00,8.0,49.6
1995-01-10 02:00:00,4.1,51.2
1995-01-10 03:00:00,2.7,78.3
1995-01-10 04:00:00,3.4,79.3
1995-01-10 05:00:00,2.5,86.6
1995-01-10 06:00:00,3.3,72.8
1995-01-10 07:00:00,2.8,182.4
1995-01-10 08:00:00,3.3,97.5
1995-01-10 09:00:00,2.2,133.6
1995-01-10 10:00:00,3.3,142.9
1995-01-10 11:00:00,2.0,137.4
1995-01-10 12:00:00,1.6,168.4
1995-01-10 13:00:00,2.3,117.1
1995-01-10 14:00:00,2.1,115.1
1995-01-10 15:00:00,2.6,114.9
1995-01-10 16:00:00,1.8,130.4
1995-01-10 17:00:00,2.3,121.7
1995-01-10 18:00:00,1.8,130.3
1995-01-10 19:00:00,1.9,132.7
1995-01-10 20:00:00,1.7,121.1
1995-01-10 21:00:00,2.0,119.5
1995-01-10 22:00:00,1.9,143.9
1995-01-10 23:00:00,1.6,128.6
1995-01-11 00:00:00,2.3,115.2
1995-01-11 01:00:00,1.8,106.8
1995-01-11 02:00:00,1.0,111.1
1995-01-11 03:00:00,1.0,256.7
1995-01-11 04:00:00,1.7,289.0
1995-01-11 05:00:00,0.9,315.0
1995-01-11 06:00:00,1.5,301.2
1995-01-11 07:00:00,1.4,290.4
1995-01-11 08:00:00,1.0,276.8
1995-01-11 09:00:00,1.6,256.4
1995-01-11 10:00:00,1.8,299.1
1995-01-11 11:00:00,1.6,282.1
1995-01-11 12:00:00,1.1,269.9
1995-01-11 13:00:00,1.2,266.3
1995-01-11 14:00:00,0.9,246.1
1995-01-11 15:00:00,2.1,200.2
1995-01-11 16:00:00,1.1,270.4
1995-01-11 17:00:00,1.1,232.8
1995-01-11 18:00:00,0.9,185.4
1995-01-11 19:00:00,0.4,256.1
1995-01-11 20:00:00,1.1,198.8
1995-01-11 21:00:00,1.8,130.4
1995-01-11 22:00:00,1.9,88.1
1995-01-11 23:00:00,2.2,108.1
1995-01-12 00:00:00,2.3,119.9
1995-01-12 01:00:00,2.1,116.1
1995-01-12 02:00:00,1.5,125.3
1995-01-12 03:00:00,2.0,125.3
1995-01-12 04:00:00,2.1,125.3
1995-01-12 05:00:00,1.5,128.6
1995-01-12 06:00:00,2.3,121.2
1995-01-12 07:00:00,1.9,129.0
1995-01-12 08:00:00,1.6,132.9
1995-01-12 09:00:00,1.9,126.2
1995-01-12 10:00:00,1.6,131.1
1995-01-12 11:00:00,2.1,123.3
1995-01-12 12:00:00,2.1,124.2
1995-01-12 13:00:00,2.3,130.2
1995-01-12 14:00:00,1.8,129.3
1995-01-12 15:00:00,2.0,122.6
1995-01-12 16:00:00,1.8,125.7
1995-01-12 17:00:00,1.9,125.4
1995-01-12 18:00:00,1.5,128.0
1995-01-12 19:00:00,3.1,122.6
1995-01-12 20:00:00,1.7,165.2
1995-01-12 21:00:00,1.6,142.4
1995-01-12 22:00:00,1.4,155.8
1995-01-12 23:00:00,1.0,144.1
1995-01-13 00:00:00,1.4,111.2
1995-01-13 01:00:00,2.1,124.3
1995-01-13 02:00:00,1.0,160.3
1995-01-13 03:00:00,1.1,137.7
1995-01-13 04:00:00,1.2,140.3
1995-01-13 05:00:00,1.9,108.1
1995-01-13 06:00:00,0.6,112.3
1995-01-13 07:00:00,1.4,116.3
1995-01-13 08:00:00,1.2,118.9
1995-01-13 09:00:00,0.7,253.5
1995-01-13 10:00:00,2.1,281.5
1995-01-13 11:00:00,2.7,281.9
1995-01-13 12:00:00,3.6,291.9
1995-01-13 13:00:00,4.9,326.5
1995-01-13 14:00:00,3.7,292.5
1995-01-13 15:00:00,5.5,275.0
1995-01-13 16:00:00,6.4,270.2
1995-01-13 17:00:00,4.4,256.2
1995-01-13 18:00:00,1.8,312.5
1995-01-13 19:00:00,2.3,266.9
1995-01-13 20:00:00,3.1,291.0
1995-01-13 21:00:00,3.2,214.7
1995-01-13 22:00:00,3.4,281.8
1995-01-13 23:00:00,3.1,256.8
1995-01-14 00:00:00,4.3,199.1
1995-01-14 01:00:00,4.7,129.7
1995-01-14 02:00:00,6.4,129.3
1995-01-14 03:00:00,5.9,249.2
1995-01-14 04:00:00,8.0,301.2
1995-01-14 05:00:00,6.4,292.8
1995-01-14 06:00:00,7.9,284.7
1995-01-14 07:00:00,9.7,285.4
1995-01-14 08:00:00,10.0,289.5
1995-01-14 09:00:00,9.6,294.5
1995-01-14 10:00:00,9.8,296.5
1995-01-14 11:00:00,9.2,292.8
1995-01-14 12:00:00,7.5,287.7
1995-01-14 13:00:00,5.0,279.1
1995-01-14 14:00:00,4.1,147.3
1995-01-14 15:00:00,3.9,125.0
1995-01-14 16:00:00,7.4,126.0
1995-01-14 17:00:00,8.1,114.2
1995-01-14 18:00:00,8.8,104.4
1995-01-14 19:00:00,8.3,133.8
1995-01-14 20:00:00,7.7,135.3
1995-01-14 21:00:00,5.0,136.6
1995-01-14 22:00:00,6.8,125.0
1995-01-14 23:00:00,8.8,115.4
1995-01-15 00:00:00,7.7,121.3
1995-01-15 01:00:00,6.0,146.5
1995-01-15 02:00:00,5.8,135.8
1995-01-15 03:00:00,3.7,164.6
1995-01-15 04:00:00,3.7,161.6
1995-01-15 05:00:00,4.0,172.7
1995-01-15 06:00:00,3.9,242.5
1995-01-15 07:00:00,3.1,141.3
1995-01-15 08:00:00,2.3,184.1
1995-01-15 09:00:00,4.0,297.2
1995-01-15 10:00:00,4.9,268.9
1995-01-15 11:00:00,3.5,256.2
1995-01-15 12:00:00,4.5,238.9
1995-01-15 13:00:00,5.5,231.1
1995-01-15 14:00:00,5.8,165.8
1995-01-15 15:00:00,3.9,261.5
1995-01-15 16:00:00,3.2,257.8
1995-01-15 17:00:00,2.2,220.9
1995-01-15 18:00:00,1.7,220.0
1995-01-15 19:00:00,2.0,146.3
1995-01-15 20:00:00,3.3,227.1
1995-01-15 21:00:00,4.7,178.2
1995-01-15 22:00:00,5.8,175.9
1995-01-15 23:00:00,4.5,228.5
1995-01-16 00:00:00,5.7,176.9
1995-01-16 01:00:00,4.0,243.8
1995-01-16 02:00:00,4.0,265.8
1995-01-16 03:00:00,3.8,161.5
1995-01-16 04:00:00,8.7,95.9
1995-01-16 05:00:00,7.2,89.2
1995-01-16 06:00:00,3.1,146.3
1995-01-16 07:00:00,1.7,227.6
1995-01-16 08:00:00,1.3,124.0
1995-01-16 09:00:00,2.2,266.7
1995-01-16 10:00:00,3.2,279.1
1995-01-16 11:00:00,0.9,319.4
1995-01-16 12:00:00,0.6,79.5
1995-01-16 13:00:00,0.8,120.6
1995-01-16 14:00:00,1.4,199.6
1995-01-16 15:00:00,4.8,113.4
1995-01-16 16:00:00,6.9,106.6
1995-01-16 17:00:00,6.3,103.4
1995-01-16 18:00:00,6.6,107.5
1995-01-16 19:00:00,5.3,68.8
1995-01-16 20:00:00,6.2,88.3
1995-01-16 21:00:00,2.9,107.3
1995-01-16 22:00:00,3.2,264.9
1995-01-16 23:00:00,4.0,289.0
1995-01-17 00:00:00,3.5,310.7
1995-01-17 01:00:00,3.2,321.4
1995-01-17 02:00:00,5.1,105.2
1995-01-17 03:00:00,4.7,262.2
1995-01-17 04:00:00,4.7,201.2
1995-01-17 05:00:00,5.8,286.5
1995-01-17 06:00:00,5.8,282.8
1995-01-17 07:00:00,4.9,277.7
1995-01-17 08:00:00,5.0,285.3
1995-01-17 09:00:00,4.4,260.1
1995-01-17 10:00:00,3.2,249.8
1995-01-17 11:00:00,2.9,163.5
1995-01-17 12:00:00,3.5,117.7
1995-01-17 13:00:00,3.1,109.8
1995-01-17 14:00:00,3.0,51.9
1995-01-17 15:00:00,3.9,124.9
1995-01-17 16:00:00,5.2,114.0
1995-01-17 17:00:00,4.8,120.0
1995-01-17 18:00:00,3.6,75.2
1995-01-17 19:00:00,0.7,261.8
1995-01-17 20:00:00,0.4,248.6
1995-01-17 21:00:00,1.2,131.4
1995-01-17 22:00:00,2.2,153.6
1995-01-17 23:00:00,1.6,137.6
1995-01-18 00:00:00,1.9,116.4
1995-01-18 01:00:00,1.9,149.8
1995-01-18 02:00:00,1.9,127.7
1995-01-18 03:00:00,1.3,129.4
1995-01-18 04:00:00,1.5,121.2
1995-01-18 05:00:00,3.9,269.9
1995-01-18 06:00:00,1.3,256.8
1995-01-18 07:00:00,2.9,276.1
1995-01-18 08:00:00,3.1,288.2
1995-01-18 09:00:00,1.6,312.0
1995-01-18 10:00:00,0.6,41.3
1995-01-18 11:00:00,3.2,284.0
1995-01-18 12:00:00,3.4,283.3
1995-01-18 13:00:00,2.9,290.2
1995-01-18 14:00:00,2.1,284.5
1995-01-18 15:00:00,3.6,287.2
1995-01-18 16:00:00,2.4,254.7
1995-01-18 17:00:00,4.1,321.6
1995-01-18 18:00:00,3.0,160.4
1995-01-18 19:00:00,1.8,277.1
1995-01-18 20:00:00,1.9,129.4
1995-01-18 21:00:00,1.0,134.3
1995-01-18 22:00:00,0.7,164.1
1995-01-18 23:00:00,1.6,156.6
1995-01-19 00:00:00,1.3,225.0
1995-01-19 01:00:00,2.1,233.9
1995-01-19 02:00:00,2.6,289.3
1995-01-19 03:00:00,3.2,276.7
1995-01-19 04:00:00,2.5,281.3
1995-01-19 05:00:00,4.0,285.0
1995-01-19 06:00:00,2.8,282.6
1995-01-19 07:00:00,3.7,271.5
1995-01-19 08:00:00,2.5,273.9
1995-01-19 09:00:00,1.6,175.6
1995-01-19 10:00:00,2.3,132.7
1995-01-19 11:00:00,3.0,111.9
1995-01-19 12:00:00,5.2,269.7
1995-01-19 13:00:00,6.6,273.2
1995-01-19 14:00:00,3.9,246.8
1995-01-19 15:00:00,1.5,200.1
1995-01-19 16:00:00,1.9,161.7
1995-01-19 17:00:00,2.2,129.8
1995-01-19 18:00:00,2.6,286.2
1995-01-19 19:00:00,2.9,277.7
1995-01-19 20:00:00,5.8,311.1
1995-01-19 21:00:00,6.3,297.3
1995-01-19 22:00:00,7.7,294.0
1995-01-19 23:00:00,5.1,286.1
1995-01-20 00:00:00,3.3,259.5
1995-01-20 01:00:00,3.7,301.0
1995-01-20 02:00:00,5.3,292.6
1995-01-20 03:00:00,5.6,298.3
1995-01-20 04:00:00,9.1,281.5
1995-01-20 05:00:00,8.8,273.3
1995-01-20 06:00:00,8.7,285.4
1995-01-20 07:00:00,8.2,277.8
1995-01-20 08:00:00,9.0,270.6
1995-01-20 09:00:00,7.7,277.6
1995-01-20 10:00:00,7.3,269.3
1995-01-20 11:00:00,7.3,279.5
1995-01-20 12:00:00,7.5,277.4
1995-01-20 13:00:00,5.4,289.1
1995-01-20 14:00:00,5.3,280.1
1995-01-20 15:00:00,5.0,280.0
1995-01-20 16:00:00,3.3,275.7
1995-01-20 17:00:00,3.9,292.9
1995-01-20 18:00:00,2.9,287.2
1995-01-20 19:00:00,4.2,277.0
1995-01-20 20:00:00,5.4,280.4
1995-01-20 21:00:00,7.6,272.8
1995-01-20 22:00:00,7.7,273.7
1995-01-20 23:00:00,6.3,270.9
1995-01-21 00:00:00,6.9,270.8
1995-01-21 01:00:00,7.2,271.0
1995-01-21 02:00:00,11.3,269.5
1995-01-21 03:00:00,10.0,274.9
1995-01-21 04:00:00,7.3,283.7
1995-01-21 05:00:00,6.6,285.0
1995-01-21 06:00:00,5.8,292.1
1995-01-21 07:00:00,4.4,281.3
1995-01-21 08:00:00,2.2,289.0
1995-01-21 09:00:00,1.0,61.5
1995-01-21 10:00:00,1.6,116.3
1995-01-21 11:00:00,0.6,105.7
1995-01-21 12:00:00,0.4,129.8
1995-01-21 13:00:00,0.7,148.0
1995-01-21 14:00:00,2.1,329.5
1995-01-21 15:00:00,2.3,293.5
1995-01-21 16:00:00,1.3,265.6
1995-01-21 17:00:00,1.1,277.4
1995-01-21 18:00:00,1.1,132.6
1995-01-21 19:00:00,2.1,81.2
1995-01-21 20:00:00,2.0,85.4
1995-01-21 21:00:00,1.7,72.4
1995-01-21 22:00:00,1.3,117.3
1995-01-21 23:00:00,1.2,53.4
1995-01-22 00:00:00,2.4,61.4
1995-01-22 01:00:00,1.8,55.9
1995-01-22 02:00:00,1.6,64.0
1995-01-22 03:00:00,1.6,97.9
1995-01-22 04:00:00,1.9,136.7
1995-01-22 05:00:00,1.4,116.2
1995-01-22 06:00:00,2.8,55.7
1995-01-22 07:00:00,1.8,103.0
1995-01-22 08:00:00,1.7,106.1
1995-01-22 09:00:00,1.4,95.5
1995-01-22 10:00:00,2.0,99.1
1995-01-22 11:00:00,2.4,277.7
1995-01-22 12:00:00,2.3,282.6
1995-01-22 13:00:00,1.1,282.2
1995-01-22 14:00:00,0.5,279.7
1995-01-22 15:00:00,1.0,137.2
1995-01-22 16:00:00,1.1,148.6
1995-01-22 17:00:00,1.7,281.8
1995-01-22 18:00:00,0.5,270.4
1995-01-22 19:00:00,1.6,278.8
1995-01-22 20:00:00,0.6,126.5
1995-01-22 21:00:00,0.6,254.3
1995-01-22 22:00:00,1.2,286.1
1995-01-22 23:00:00,1.0,116.2
1995-01-23 00:00:00,0.8,129.3
1995-01-23 01:00:00,1.9,113.0
1995-01-23 02:00:00,1.6,131.6
1995-01-23 03:00:00,1.9,111.3
1995-01-23 04:00:00,1.7,120.0
1995-01-23 05:00:00,1.8,126.0
1995-01-23 06:00:00,1.7,104.7
1995-01-23 07:00:00,2.2,42.5
1995-01-23 08:00:00,1.4,106.6
1995-01-23 09:00:00,1.2,73.2
1995-01-23 10:00:00,1.7,160.6
1995-01-23 11:00:00,1.0,95.3
1995-01-23 12:00:00,1.3,264.6
1995-01-23 13:00:00,1.8,114.8
1995-01-23 14:00:00,2.0,97.3
1995-01-23 15:00:00,1.1,295.9
1995-01-23 16:00:00,1.4,178.4
1995-01-23 17:00:00,2.1,119.4
1995-01-23 18:00:00,1.7,103.2
1995-01-23 19:00:00,2.1,83.6
1995-01-23 20:00:00,1.6,272.6
1995-01-23 21:00:00,0.9,257.1
1995-01-23 22:00:00,1.3,271.4
1995-01-23 23:00:00,2.0,80.3
1995-01-24 00:00:00,1.3,271.3
1995-01-24 01:00:00,1.4,263.4
1995-01-24 02:00:00,1.1,205.9
1995-01-24 03:00:00,1.3,110.0
1995-01-24 04:00:00,0.7,198.4
1995-01-24 05:00:00,2.3,302.5
1995-01-24 06:00:00,1.6,310.4
1995-01-24 07:00:00,2.3,311.2
1995-01-24 08:00:00,1.1,303.2
1995-01-24 09:00:00,2.7,320.4
1995-01-24 10:00:00,3.2,285.4
1995-01-24 11:00:00,5.1,261.2
1995-01-24 12:00:00,5.4,247.5
1995-01-24 13:00:00,5.1,242.8
1995-01-24 14:00:00,4.8,238.6
1995-01-24 15:00:00,4.4,235.8
1995-01-24 16:00:00,4.9,232.9
1995-01-24 17:00:00,4.7,232.2
1995-01-24 18:00:00,4.3,232.2
1995-01-24 19:00:00,4.2,230.5
1995-01-24 20:00:00,2.8,249.9
1995-01-24 21:00:00,2.7,253.3
1995-01-24 22:00:00,1.9,254.1
1995-01-24 23:00:00,1.9,240.5
1995-01-25 00:00:00,1.6,270.0
1995-01-25 01:00:00,1.1,330.3
1995-01-25 02:00:00,1.0,129.9
1995-01-25 03:00:00,1.0,266.8
1995-01-25 04:00:00,1.6,212.2
1995-01-25 05:00:00,0.8,265.7
1995-01-25 06:00:00,0.9,173.2
1995-01-25 07:00:00,0.9,264.9
1995-01-25 08:00:00,1.1,152.3
1995-01-25 09:00:00,1.5,186.7
1995-01-25 10:00:00,0.7,111.3
1995-01-25 11:00:00,1.1,106.7
1995-01-25 12:00:00,1.3,110.9
1995-01-25 13:00:00,0.9,236.9
1995-01-25 14:00:00,1.4,294.4
1995-01-25 15:00:00,1.6,301.0
1995-01-25 16:00:00,0.7,119.4
1995-01-25 17:00:00,1.3,249.6
1995-01-25 18:00:00,1.1,125.1
1995-01-25 19:00:00,0.9,258.5
1995-01-25 20:00:00,0.9,115.2
1995-01-25 21:00:00,0.7,124.6
1995-01-25 22:00:00,1.1,138.1
1995-01-25 23:00:00,0.5,141.7
1995-01-26 00:00:00,1.2,105.5
1995-01-26 01:00:00,0.5,90.3
1995-01-26 02:00:00,1.4,239.2
1995-01-26 03:00:00,0.6,30.5
1995-01-26 04:00:00,0.4,135.6
1995-01-26 05:00:00,1.2,111.6
1995-01-26 06:00:00,1.1,252.7
1995-01-26 07:00:00,0.9,270.6
1995-01-26 08:00:00,1.0,131.3
1995-01-26 09:00:00,1.2,129.5
1995-01-26 10:00:00,1.5,120.1
1995-01-26 11:00:00,2.2,118.3
1995-01-26 12:00:00,1.7,117.6
1995-01-26 13:00:00,1.9,113.0
1995-01-26 14:00:00,1.5,124.1
1995-01-26 15:00:00,2.0,115.7
1995-01-26 16:00:00,1.6,123.7
1995-01-26 17:00:00,1.0,149.0
1995-01-26 18:00:00,1.7,127.6
1995-01-26 19:00:00,1.3,111.0
1995-01-26 20:00:00,2.2,333.3
1995-01-26 21:00:00,2.3,275.0
1995-01-26 22:00:00,2.0,280.8
1995-01-26 23:00:00,1.8,275.3
1995-01-27 00:00:00,2.4,271.5
1995-01-27 01:00:00,1.4,229.8
1995-01-27 02:00:00,1.1,131.9
1995-01-27 03:00:00,1.4,122.1
1995-01-27 04:00:00,1.3,117.7
1995-01-27 05:00:00,1.1,127.8
1995-01-27 06:00:00,0.7,107.8
1995-01-27 07:00:00,1.4,120.5
1995-01-27 08:00:00,1.1,129.4
1995-01-27 09:00:00,1.7,115.4
1995-01-27 10:00:00,1.7,114.9
1995-01-27 11:00:00,2.0,111.5
1995-01-27 12:00:00,1.9,125.8
1995-01-27 13:00:00,2.1,127.1
1995-01-27 14:00:00,2.0,121.1
1995-01-27 15:00:00,2.0,122.4
1995-01-27 16:00:00,2.4,113.4
1995-01-27 17:00:00,2.1,126.2
1995-01-27 18:00:00,2.4,120.8
1995-01-27 19:00:00,2.0,119.5
1995-01-27 20:00:00,1.9,119.0
1995-01-27 21:00:00,2.1,116.8
1995-01-27 22:00:00,2.3,117.2
1995-01-27 23:00:00,2.1,112.7
1995-01-28 00:00:00,2.2,121.5
1995-01-28 01:00:00,1.7,131.2
1995-01-28 02:00:00,1.9,122.1
1995-01-28 03:00:00,2.2,117.9
1995-01-28 04:00:00,2.2,113.3
1995-01-28 05:00:00,2.2,118.0
1995-01-28 06:00:00,1.9,119.0
1995-01-28 07:00:00,1.8,128.2
1995-01-28 08:00:00,1.5,127.1
1995-01-28 09:00:00,2.5,117.8
1995-01-28 10:00:00,1.2,145.5
1995-01-28 11:00:00,2.3,123.7
1995-01-28 12:00:00,2.2,120.9
1995-01-28 13:00:00,2.2,123.1
1995-01-28 14:00:00,1.9,126.4
1995-01-28 15:00:00,2.7,124.4
1995-01-28 16:00:00,1.8,132.1
1995-01-28 17:00:00,1.9,120.3
1995-01-28 18:00:00,2.0,123.1
1995-01-28 19:00:00,1.6,127.3
1995-01-28 20:00:00,1.8,122.9
1995-01-28 21:00:00,2.1,121.9
1995-01-28 22:00:00,1.9,120.4
1995-01-28 23:00:00,1.7,129.5
1995-01-29 00:00:00,2.0,120.2
1995-01-29 01:00:00,1.8,122.3
1995-01-29 02:00:00,1.8,128.1
1995-01-29 03:00:00,2.3,112.7
1995-01-29 04:00:00,1.7,144.0
1995-01-29 05:00:00,2.1,130.0
1995-01-29 06:00:00,3.9,111.2
1995-01-29 07:00:00,3.4,113.8
1995-01-29 08:00:00,2.5,174.3
1995-01-29 09:00:00,2.0,45.6
1995-01-29 10:00:00,1.7,173.0
1995-01-29 11:00:00,1.6,215.0
1995-01-29 12:00:00,2.9,191.4
1995-01-29 13:00:00,1.5,125.3
1995-01-29 14:00:00,2.9,167.9
1995-01-29 15:00:00,2.8,185.8
1995-01-29 16:00:00,1.8,183.4
1995-01-29 17:00:00,1.5,225.2
1995-01-29 18:00:00,1.7,190.5
1995-01-29 19:00:00,1.5,211.5
1995-01-29 20:00:00,1.6,178.4
1995-01-29 21:00:00,1.3,233.9
1995-01-29 22:00:00,1.5,285.3
1995-01-29 23:00:00,1.0,300.5
1995-01-30 00:00:00,0.2,295.1
1995-01-30 01:00:00,0.3,122.0
1995-01-30 02:00:00,1.3,278.9
1995-01-30 03:00:00,1.9,253.1
1995-01-30 04:00:00,2.4,235.6
1995-01-30 05:00:00,1.6,285.2
1995-01-30 06:00:00,2.6,255.3
1995-01-30 07:00:00,2.2,282.4
1995-01-30 08:00:00,2.0,274.6
1995-01-30 09:00:00,2.8,274.4
1995-01-30 10:00:00,1.4,279.1
1995-01-30 11:00:00,0.5,233.2
1995-01-30 12:00:00,0.4,205.6
1995-01-30 13:00:00,0.5,148.3
1995-01-30 14:00:00,1.2,112.3
1995-01-30 15:00:00,1.6,118.3
1995-01-30 16:00:00,2.3,120.5
1995-01-30 17:00:00,1.7,133.7
1995-01-30 18:00:00,1.9,124.0
1995-01-30 19:00:00,1.8,121.7
1995-01-30 20:00:00,2.2,126.4
1995-01-30 21:00:00,1.8,121.6
1995-01-30 22:00:00,2.6,112.4
1995-01-30 23:00:00,1.9,131.1
1995-01-31 00:00:00,2.2,129.4
1995-01-31 01:00:00,1.6,123.2
1995-01-31 02:00:00,1.7,122.6
1995-01-31 03:00:00,1.5,118.8
1995-01-31 04:00:00,0.8,145.8
1995-01-31 05:00:00,0.5,193.4
1995-01-31 06:00:00,1.5,250.4
1995-01-31 07:00:00,1.4,280.6
1995-01-31 08:00:00,2.3,109.6
1995-01-31 09:00:00,4.7,14.7
1995-01-31 10:00:00,2.8,277.7
1995-01-31 11:00:00,1.9,259.4
1995-01-31 12:00:00,1.4,283.3
1995-01-31 13:00:00,3.2,274.0
1995-01-31 14:00:00,1.9,197.2
1995-01-31 15:00:00,3.0,284.4
1995-01-31 16:00:00,7.8,279.8
1995-01-31 17:00:00,7.4,303.4
1995-01-31 18:00:00,8.5,304.3
1995-01-31 19:00:00,9.0,292.1
1995-01-31 20:00:00,10.8,288.5
1995-01-31 21:00:00,8.0,296.5
1995-01-31 22:00:00,6.8,295.8
1995-01-31 23:00:00,9.2,281.7
1995-02-01 00:00:00,10.6,279.0
1995-02-01 01:00:00,9.9,278.6
1995-02-01 02:00:00,9.4,278.6
1995-02-01 03:00:00,7.3,277.6
1995-02-01 04:00:00,5.6,281.2
1995-02-01 05:00:00,6.4,271.4
1995-02-01 06:00:00,4.2,274.0
1995-02-01 07:00:00,4.2,299.3
1995-02-01 08:00:00,4.6,307.2
1995-02-01 09:00:00,5.6,320.2
1995-02-01 10:00:00,3.7,309.5
1995-02-01 11:00:00,4.1,290.4
1995-02-01 12:00:00,2.9,296.2
1995-02-01 13:00:00,1.5,296.9
1995-02-01 14:00:00,1.3,131.6
1995-02-01 15:00:00,1.1,116.9
1995-02-01 16:00:00,1.6,109.9
1995-02-01 17:00:00,1.3,112.7
1995-02-01 18:00:00,1.5,120.0
1995-02-01 19:00:00,1.4,111.3
1995-02-01 20:00:00,1.7,126.0
1995-02-01 21:00:00,1.8,126.5
1995-02-01 22:00:00,1.0,136.7
1995-02-01 23:00:00,0.9,151.4
1995-02-02 00:00:00,1.3,136.1
1995-02-02 01:00:00,1.5,142.5
1995-02-02 02:00:00,1.4,131.0
1995-02-02 03:00:00,2.3,189.1
1995-02-02 04:00:00,2.9,123.1
1995-02-02 05:00:00,5.5,79.4
1995-02-02 06:00:00,9.7,78.1
1995-02-02 07:00:00,12.0,76.5
1995-02-02 08:00:00,13.6,77.0
1995-02-02 09:00:00,14.4,77.3
1995-02-02 10:00:00,13.2,76.8
1995-02-02 11:00:00,13.2,85.3
1995-02-02 12:00:00,12.7,76.5
1995-02-02 13:00:00,12.8,76.8
1995-02-02 14:00:00,11.0,77.7
1995-02-02 15:00:00,11.6,82.4
1995-02-02 16:00:00,9.7,83.8
1995-02-02 17:00:00,6.3,84.8
1995-02-02 18:00:00,7.2,110.2
1995-02-02 19:00:00,6.8,100.6
1995-02-02 20:00:00,6.3,82.4
1995-02-02 21:00:00,7.4,79.0
1995-02-02 22:00:00,6.5,81.5
1995-02-02 23:00:00,7.5,96.8
1995-02-03 00:00:00,7.4,103.1
1995-02-03 01:00:00,5.4,104.1
1995-02-03 02:00:00,5.7,113.6
1995-02-03 03:00:00,7.3,105.3
1995-02-03 04:00:00,5.9,105.9
1995-02-03 05:00:00,7.8,107.8
1995-02-03 06:00:00,6.9,104.6
1995-02-03 07:00:00,8.6,98.3
1995-02-03 08:00:00,8.0,94.1
1995-02-03 09:00:00,7.3,90.4
1995-02-03 10:00:00,6.8,95.3